Probability
12 12 12 9 8 6 4 3 3 3 4 4 2 1 1 0 0 0 1 1 1 1 1 2 2 1 0 0 0 1 2 2 1 0 0 0 0 0
11 11 11 10 8 6 4 3 3 4 4 5 4 3 2 1 0 0 1 1 1 1 1 1 1 0 0 0 0 0 1 1 0 0 0 0 0 0
9 9 9 10 8 6 5 4 4 5 6 6 5 3 2 1 0 1 2 2 2 2 1 0 0 0 0 0 0 0 0 0 0 0 0 0 0 0
7 8 9 9 8 6 4 3 3 4 6 6 4 2 2 2 1 2 2 1 1 2 2 0 0 0 0 0 0 0 0 0 0 0 0 0 0 0
5 7 8 8 7 6 5 4 5 5 7 7 6 3 1 1 2 3 2 1 1 1 1 0 0 0 0 0 0 0 0 0 0 0 0 0 0 0
5 6 6 6 7 7 7 7 8 9 10 9 8 5 1 0 1 2 1 0 0 0 0 0 0 0 0 0 0 0 0 0 0 0 0 0 0 0
5 6 6 7 9 9 9 10 11 12 13 12 11 7 3 0 0 0 0 0 0 0 0 0 0 0 0 0 0 0 0 0 0 0 0 0 0 0
7 8 9 10 11 10 9 10 10 12 13 14 13 10 4 1 0 0 0 0 0 0 0 0 0 0 0 0 0 0 0 0 0 0 0 0 0 0
10 11 12 11 11 12 11 10 10 10 11 12 12 11 6 2 0 0 0 0 0 0 0 0 0 0 0 0 0 0 0 0 0 0 0 0 0 0
12 13 13 11 11 13 13 12 11 11 10 10 11 10 6 2 1 0 0 0 0 0 0 0 0 0 0 0 0 0 0 0 0 0 0 0 0 0
11 11 11 10 10 11 12 12 12 13 13 12 10 7 4 2 1 1 1 1 0 0 0 0 0 0 0 0 0 0 0 0 0 0 0 0 0 0
10 9 8 7 7 7 9 10 12 13 15 14 10 6 3 2 2 2 3 4 2 1 0 0 0 0 0 0 0 0 0 0 0 0 0 0 0 0
10 9 8 6 3 3 5 8 11 12 13 13 11 8 6 4 4 4 5 6 5 3 2 0 0 0 0 0 0 0 0 0 0 0 0 0 0 0
10 9 9 6 2 0 2 6 8 9 10 11 11 10 8 6 5 5 5 6 6 5 3 2 1 1 1 1 1 0 0 0 0 0 0 0 0 0
8 8 7 5 2 0 1 2 4 5 7 8 9 9 8 7 6 6 5 5 5 5 4 4 3 3 3 3 2 1 0 0 0 0 0 0 0 0
4 5 4 2 1 1 1 1 2 3 4 5 6 7 7 7 7 7 6 6 6 6 6 6 6 6 5 4 3 1 0 0 0 0 0 0 0 0
2 3 3 2 2 2 3 2 3 3 3 4 5 6 5 5 7 7 6 6 8 8 8 7 6 6 5 5 3 2 1 0 0 0 0 0 0 0
1 2 3 3 3 4 4 4 4 4 4 4 5 5 4 4 6 6 5 6 7 8 7 6 5 4 4 4 3 3 2 1 0 0 0 0 0 0
2 2 3 4 4 5 5 6 6 6 6 6 6 4 3 4 5 6 5 6 7 7 6 5 4 3 3 3 2 2 1 1 0 0 0 0 0 0
2 2 3 4 5 6 6 6 6 6 6 6 6 4 3 4 5 7 6 6 6 6 5 4 3 3 3 2 1 0 0 0 0 0 0 0 0 0
1 1 2 4 6 6 6 6 6 6 6 6 6 5 4 4 5 6 6 6 6 6 5 4 3 3 2 1 0 0 0 0 0 0 0 0 0 0
0 0 1 3 5 6 6 6 6 6 6 6 6 5 3 3 3 3 3 3 4 5 4 3 2 1 1 1 0 0 0 0 0 0 0 0 0 0
0 0 0 2 4 5 6 6 6 6 6 6 6 4 2 1 1 1 1 1 2 3 4 3 1 0 0 1 0 0 0 0 0 0 0 0 0 0
Wind_Speed
2 2 2 2 2 2 2 3 4 2 3 3 2 3 2 3 4 3 3 6 8 8 9 9 8 8 7 7 6 6 5 4 4 4 4 4 4 3
1 1 1 2 1 2 2 2 3 4 3 3 3 3 3 3 4 3 4 8 9 9 9 9 9 9 8 8 8 7 7 6 6 5 5 4 3 3
2 2 2 2 2 1 2 2 2 3 3 3 2 2 2 3 2 2 3 4 4 9 9 9 9 9 9 9 8 8 7 7 7 6 6 5 4 3
3 2 3 2 2 2 2 2 2 3 3 4 2 2 3 3 3 3 3 3 3 7 9 9 9 9 9 8 8 7 7 7 6 6 6 6 5 4
3 3 3 2 3 2 3 2 2 2 2 3 3 2 1 1 1 2 3 2 3 5 8 8 9 9 9 8 8 8 8 7 7 6 6 6 5 4
3 3 4 4 4 4 3 3 3 2 2 2 2 2 1 1 2 2 2 2 3 3 4 5 7 8 9 9 9 8 8 8 7 7 6 6 6 5
3 3 3 4 4 3 3 3 3 3 2 2 2 2 2 2 3 3 3 2 3 3 2 3 3 3 5 8 9 9 8 8 8 8 8 7 7 7
4 3 3 4 4 5 5 5 5 4 4 4 3 4 5 4 3 3 3 2 3 3 3 3 3 4 5 4 8 9 9 9 8 8 8 8 8 8
4 3 3 3 3 3 5 5 6 7 6 5 5 6 5 5 4 4 4 4 5 3 3 3 3 4 4 5 10 10 10 10 10 9 9 9 9 9
4 4 4 4 3 3 3 3 4 5 7 5 6 6 6 5 6 6 6 4 3 2 3 3 3 4 4 4 9 12 12 11 10 10 9 10 9 9
4 4 4 4 5 4 3 4 4 5 5 6 7 6 6 6 5 3 3 3 3 3 3 3 2 2 2 4 5 10 11 11 11 10 10 10 10 9
4 4 5 5 6 5 4 4 5 5 4 3 4 5 5 5 6 6 5 4 3 3 4 4 2 2 2 2 3 3 5 8 10 10 11 10 9 6
4 4 4 6 6 6 5 5 6 5 3 3 3 3 3 3 4 4 5 5 5 4 4 4 3 2 3 2 1 2 3 3 4 5 8 10 10 9
5 4 4 6 6 6 5 5 6 4 2 2 2 3 3 3 4 4 5 5 5 6 4 4 3 4 3 3 2 2 2 3 3 4 3 5 8 10
5 6 5 5 5 4 5 5 4 2 2 2 3 4 4 4 3 2 2 3 3 4 3 4 4 3 4 4 3 3 2 2 3 3 3 4 4 5
4 4 4 3 2 3 3 3 3 3 3 4 3 3 2 2 2 2 1 2 2 3 2 2 4 4 4 4 4 3 3 3 3 4 3 3 3 4
2 1 1 1 2 2 2 2 2 2 3 3 3 3 2 2 3 2 2 1 2 3 2 1 1 2 3 4 3 4 3 3 3 4 3 3 4 5
2 2 3 3 4 4 3 3 3 3 3 3 3 3 3 3 3 2 2 2 3 3 3 2 1 1 1 2 4 4 3 3 3 3 3 3 3 4
2 3 4 4 4 4 4 4 4 4 3 3 4 4 3 3 3 3 2 2 3 3 3 2 2 2 2 4 3 4 4 3 2 2 3 3 4 4
3 4 5 4 4 4 4 4 4 3 3 3 3 3 3 3 3 2 2 3 3 3 2 2 3 4 5 5 3 3 5 5 4 4 3 2 2 1
4 4 4 4 4 4 4 4 4 3 3 3 3 4 3 3 3 3 3 3 3 3 3 4 5 5 3 1 1 2 2 5 6 4 4 3 2 2
4 4 4 4 4 4 3 3 3 3 3 3 3 3 3 3 3 3 3 3 3 3 4 4 2 1 2 3 4 4 3 2 3 4 4 5 4 5
4 4 4 3 3 3 3 3 4 3 3 3 3 3 3 3 3 3 3 3 3 3 3 2 2 1 2 3 4 3 3 3 1 1 1 2 4 5
Wind_Direction
229 221 221 226 207 195 180 167 166 206 249 239 231 225 216 212 207 199 201 208 205 199 203 204 205 207 208 208 208 204 204 209 217 223 231 240 244 246
222 214 240 242 231 211 195 193 179 179 224 234 226 224 215 221 211 204 212 208 205 205 207 208 210 208 206 206 208 208 206 207 214 221 223 224 228 228
239 219 242 236 227 225 206 198 196 176 218 256 234 221 202 215 212 210 211 209 213 215 215 213 211 208 206 207 208 207 207 209 211 214 218 217 220 225
241 231 245 239 237 229 215 218 217 204 198 229 238 218 219 214 199 203 211 207 215 221 219 215 213 211 207 206 206 206 206 210 212 214 216 215 219 220
233 222 232 219 235 240 229 227 232 231 203 203 232 218 220 207 183 212 218 219 222 223 219 217 217 217 214 211 209 209 208 210 212 214 213 211 209 208
242 227 226 214 221 228 233 227 222 224 214 207 225 226 212 203 169 200 232 226 232 225 218 216 218 219 216 211 209 211 212 211 211 214 214 211 208 204
260 245 236 231 225 221 230 222 213 214 213 212 223 218 210 194 207 202 215 229 240 217 205 220 213 219 219 218 216 214 213 213 213 214 213 210 210 209
254 261 256 243 244 243 243 227 208 207 214 210 218 222 225 212 206 203 198 195 248 221 190 230 203 218 221 214 214 212 212 213 214 216 215 212 211 211
241 247 259 258 241 244 251 244 236 234 219 208 217 227 223 212 199 209 208 207 223 211 177 228 211 225 227 216 208 211 212 213 214 216 215 211 210 210
244 237 237 252 250 237 240 248 248 245 238 225 220 228 228 218 204 205 208 218 240 222 182 214 215 222 226 222 214 211 212 211 212 214 213 210 210 211
254 245 233 239 260 251 233 243 258 263 257 240 235 236 235 226 209 192 194 194 231 235 196 201 214 221 233 232 223 213 212 212 213 213 211 210 210 209
262 256 243 240 251 245 232 231 248 258 261 268 259 260 249 241 223 206 200 201 214 234 208 191 196 171 251 248 222 210 212 216 216 215 212 209 204 199
251 256 255 247 243 243 234 229 240 251 249 240 250 257 253 242 236 227 214 206 212 231 212 184 190 184 199 238 253 220 206 209 205 216 215 212 206 197
243 249 253 249 245 246 241 252 258 255 240 239 251 253 249 245 243 238 230 224 223 228 215 186 191 195 194 213 235 229 213 211 199 202 202 203 210 212
246 249 253 254 251 246 244 252 252 236 222 237 249 251 246 243 242 244 245 239 243 245 226 200 196 197 196 209 210 197 207 226 202 196 197 200 204 201
255 262 268 269 261 258 260 251 238 222 217 235 251 260 262 254 247 235 237 247 263 283 284 227 206 196 208 210 201 206 198 205 202 200 201 210 212 206
224 240 261 265 266 267 265 259 248 236 235 241 244 257 262 252 252 242 225 223 229 248 276 301 261 218 210 198 207 215 206 211 204 191 189 214 224 217
178 227 238 237 239 244 246 251 244 241 239 235 234 236 244 245 250 245 222 221 235 240 243 232 171 71 358 276 225 212 211 214 206 190 186 200 230 229
192 233 240 239 239 239 238 238 240 239 231 229 233 236 237 242 244 242 230 228 237 239 240 220 194 181 217 257 267 211 206 209 195 200 202 200 221 230
223 235 240 240 237 238 239 239 243 246 236 231 232 234 232 232 237 236 228 225 232 239 250 240 220 210 215 231 243 244 213 203 195 204 210 201 219 234
233 238 240 240 238 237 239 238 233 233 234 231 235 237 231 224 230 231 228 233 231 230 237 244 241 230 224 185 232 260 253 215 202 200 194 185 188 187
234 237 239 238 238 238 236 231 231 232 234 236 241 239 231 223 223 225 224 227 232 233 240 252 255 217 195 205 224 242 257 260 231 218 202 187 179 190
237 237 238 238 239 238 233 232 231 235 235 233 237 235 230 229 227 221 226 228 228 230 237 250 253 227 222 215 218 226 236 243 237 208 255 233 196 200